FW4838 Weather Reports


Display with metric or nautical units.
time (UTC)temp
F
wind
direction
speed
MPH
gust
MPH
rain 1hr
in
rain 24hr
in
rain mn
in
humidity
%
barometer
mb
20260506044546 58 25 7.0 13.0 0.00 0.00 0.00 76 1011.6
20260506043036 60 30 7.0 13.0 0.00 0.00 0.00 74 1011.7
20260506041551 61 15 7.0 13.0 0.00 0.00 0.00 73 1011.5
20260506040041 62 28 8.0 13.0 0.00 0.00 0.00 71 1011.3
20260506034544 63 26 3.0 11.0 0.00 0.00 0.00 69 1011.2
20260506033038 64 346 7.0 13.0 0.00 0.00 0.00 68 1011.1
20260506031536 64 41 5.0 11.0 0.00 0.00 0.00 67 1010.7
20260506030041 65 19 5.0 10.0 0.00 0.00 0.00 66 1010.3
20260506024545 66 44 4.0 10.0 0.00 0.00 0.00 65 1010.2
20260506023039 67 15 5.0 12.0 0.00 0.00 0.00 64 1010.1
20260506021546 67 26 4.0 9.0 0.00 0.00 0.00 64 1009.6
20260506020036 68 21 4.0 8.0 0.00 0.00 0.00 63 1009.1
20260506014541 69 22 5.0 13.0 0.00 0.00 0.00 61 1009.0
20260506013045 71 25 6.0 13.0 0.00 0.00 0.00 61 1008.5
20260506011604 71 44 3.0 9.0 0.00 0.00 0.00 60 1008.2
20260506010037 72 67 5.0 12.0 0.00 0.00 0.00 59 1008.1
20260506004545 73 349 4.0 11.0 0.00 0.00 0.00 58 1008.1
20260506003042 74 49 7.0 14.0 0.00 0.00 0.00 57 1007.2
20260506001543 75 61 6.0 12.0 0.00 0.00 0.00 57 1007.4
20260506000046 76 73 9.0 16.0 0.00 0.00 0.00 55 1006.9
20260505234538 77 28 8.0 15.0 0.00 0.00 0.00 55 1007.4
20260505233041 79 24 10.0 16.0 0.00 0.00 0.00 54 1006.9
20260505231543 80 20 9.0 16.0 0.00 0.00 0.00 54 1007.0
20260505230040 82 30 10.0 19.0 0.00 0.00 0.00 52 1006.8
20260505224539 85 352 11.0 20.0 0.00 0.00 0.00 48 1006.3
20260505223036 89 63 5.0 10.0 0.00 0.00 0.00 39 1005.8
20260505221534 89 45 7.0 10.0 0.00 0.00 0.00 38 1005.7
20260505220053 89 5 5.0 11.0 0.00 0.00 0.00 37 1005.7
20260505214541 90 332 3.0 8.0 0.00 0.00 0.00 36 1006.0
20260505213039 89 21 6.0 14.0 0.00 0.00 0.00 37 1006.1
20260505211539 89 25 6.0 10.0 0.00 0.00 0.00 35 1006.1
20260505210041 90 0 3.0 6.0 0.00 0.00 0.00 35 1006.2
20260505204550 90 219 3.0 8.0 0.00 0.00 0.00 36 1006.4
20260505203039 90 267 5.0 10.0 0.00 0.00 0.00 35 1006.5
20260505201540 89 200 1.0 8.0 0.00 0.00 0.00 39 1006.6
20260505200036 89 185 4.0 10.0 0.00 0.00 0.00 41 1006.9
20260505194535 89 231 2.0 10.0 0.00 0.00 0.00 42 1007.1
20260505193043 88 236 2.0 7.0 0.00 0.00 0.00 43 1007.1
20260505191537 88 277 7.0 16.0 0.00 0.00 0.00 42 1007.5
20260505190035 87 226 4.0 9.0 0.00 0.00 0.00 43 1007.3
20260505184536 87 276 6.0 12.0 0.00 0.00 0.00 46 1007.5
20260505183049 86 221 5.0 12.0 0.00 0.00 0.00 47 1007.6
20260505181540 86 237 3.0 9.0 0.00 0.00 0.00 49 1007.7
20260505180038 84 307 5.0 13.0 0.00 0.00 0.00 50 1007.8
20260505174536 84 227 4.0 10.0 0.00 0.00 0.00 52 1007.9
20260505173033 84 279 5.0 10.0 0.00 0.00 0.00 51 1007.9
20260505171543 84 283 4.0 14.0 0.00 0.00 0.00 53 1007.9
20260505170039 82 225 5.0 12.0 0.00 0.00 0.00 55 1007.8
20260505164551 82 267 5.0 10.0 0.00 0.00 0.00 55 1007.7
20260505163036 81 248 4.0 12.0 0.00 0.00 0.00 60 1007.9
20260505161550 80 202 6.0 12.0 0.00 0.00 0.00 62 1007.6
20260505153046 77 217 5.0 12.0 0.00 0.00 0.00 69 1007.5
20260505151540 76 201 5.0 15.0 0.00 0.00 0.00 72 1007.4
20260505124547 69 241 5.0 12.0 0.00 0.00 0.00 82 1006.4
20260505123038 68 193 6.0 10.0 0.00 0.00 0.00 83 1006.1
20260505121537 68 186 6.0 11.0 0.00 0.00 0.00 82 1006.2
20260505120047 68 211 4.0 14.0 0.00 0.00 0.00 83 1006.0
20260505114540 68 232 6.0 12.0 0.00 0.00 0.00 83 1006.0
20260505113040 68 244 6.0 16.0 0.00 0.00 0.00 82 1005.8
20260505111537 68 228 5.0 14.0 0.00 0.00 0.00 82 1005.8
20260505101536 69 196 5.0 14.0 0.00 0.00 0.00 80 1005.7
20260505100036 69 223 6.0 17.0 0.00 0.00 0.00 80 1005.5
20260505094535 69 266 6.0 13.0 0.00 0.00 0.00 79 1005.9
20260505093042 70 211 6.0 13.0 0.00 0.00 0.00 79 1005.8
20260505091535 70 204 5.0 21.0 0.00 0.00 0.00 79 1005.9
20260505090043 70 198 6.0 13.0 0.00 0.00 0.00 79 1006.0
20260505084547 70 221 6.0 16.0 0.00 0.00 0.00 78 1006.0
20260505083047 70 180 6.0 15.0 0.00 0.00 0.00 78 1006.2
20260505081538 70 217 6.0 14.0 0.00 0.00 0.00 78 1006.2
20260505080042 70 192 5.0 14.0 0.00 0.00 0.00 78 1006.5
20260505074540 71 197 7.0 16.0 0.00 0.00 0.00 78 1006.5
20260505073040 71 195 6.0 14.0 0.00 0.00 0.00 77 1006.7
20260505071536 71 184 8.0 14.0 0.00 0.00 0.00 76 1006.9
20260505070044 72 223 6.0 17.0 0.00 0.00 0.00 76 1006.8
20260505064536 72 208 8.0 15.0 0.00 0.00 0.00 75 1007.1
20260505063040 72 160 7.0 20.0 0.00 0.00 0.00 75 1007.0
20260505061538 72 159 8.0 18.0 0.00 0.00 0.00 75 1007.3
20260505060039 72 177 9.0 16.0 0.00 0.00 0.00 75 1007.3